Current Weather Conditions: station 62154

sailwx.info

Wind from 200 at 5 knots

Wave height 0.6 meters (1 feet), 5 second period

Air temperature 14.4° C
Dewpoint 13.3° C

Last reported at 2019-Sep-20 09:00 UTC.
Time now 2019-Sep-20 10:21 UTC

Location: N 56°24' E 002°12'.
View on Google Maps.

See reports from other nearby stations

  
Tides and Currents Weather Stations Pressure Air Temp Water Temp Dewpoint Dewpoint Depression Visibility Wind Speed Wind Dir Waves Ship Positions
date/time (UTC)wind fromknots sea level pressurealtimeterstation pressurevisibilityair tempwater tempwave heightnotes
2019-Sep-20 09:00 200 5 14.4 0.6
2019-Sep-20 08:00 190 4 13.9 0.7
2019-Sep-20 07:00 210 4 13.6 0.7
2019-Sep-20 06:00 220 5 13.6 0.7
2019-Sep-20 05:00 220 4 13.8 0.7
2019-Sep-20 04:00 240 2 13.8 0.8
2019-Sep-20 03:00 270 5 13.7 0.8
2019-Sep-20 02:00 270 6 13.7 0.8
2019-Sep-20 01:00 250 4 13.2 0.8
2019-Sep-20 00:00 270 5 12.8 0.9
2019-Sep-19 23:00 280 7 12.5 0.9
2019-Sep-19 22:00 250 8 12.3 1.0
2019-Sep-19 21:00 250 7 12.1 1.0
2019-Sep-19 20:00 270 6 12.6 1.0
2019-Sep-19 19:00 300 6 13.1 1.0
2019-Sep-19 18:00 290 6 13.2 1.0
2019-Sep-19 17:00 270 7 13.5 1.1
2019-Sep-19 16:00 250 7 13.6 1.1
2019-Sep-19 15:00 260 6 13.6 1.1
2019-Sep-19 14:00 240 7 13.8 1.2
2019-Sep-19 13:00 220 8 13.9 1.1
2019-Sep-19 12:00 220 6 14.2 1.2
2019-Sep-19 11:00 230 6 13.8 1.1
2019-Sep-19 10:00 190 2 12.6 1.2
2019-Sep-19 09:00 180 2 12.3 1.3
2019-Sep-19 08:00 190 0 12.3 1.4
2019-Sep-19 07:00 12.1 1.3
2019-Sep-19 06:00 020 0 12.2 1.4
2019-Sep-19 05:00 360 1 11.9 1.4
2019-Sep-19 04:00 330 2 10.9 1.4
2019-Sep-19 03:00 330 2 11.0
2019-Sep-19 02:00 340 4 10.9 1.3
2019-Sep-19 01:00 340 5 10.9 1.5
2019-Sep-19 00:00 360 5 10.9 1.6
2019-Sep-18 23:00 020 6 11.0 1.5
2019-Sep-18 22:00 010 6 11.1 1.7
2019-Sep-18 21:00 360 6 11.2 1.6
2019-Sep-18 20:00 360 6 11.5 1.6
2019-Sep-18 19:00 350 6 11.2 1.7
2019-Sep-18 18:00 350 7 11.3 1.8
2019-Sep-18 17:00 350 7 11.2 1.8
2019-Sep-18 16:00 360 7 11.5 1.9
2019-Sep-18 14:00 350 8 11.6 1.7
2019-Sep-18 13:00 340 9 12.8 1.7
2019-Sep-18 12:00 340 9 12.8 1.8
2019-Sep-18 11:00 340 8 12.4 1.6
2019-Sep-18 10:00 340 9 11.8 1.8